Regional Weather Roundup
Issued by NWS

Home | Current Version | Previous Version | Graphics & Text | Print | Product List | Glossary On
Versions: 1 2 3 4 5 6 7 8 9 10 11 12 13 14 15 16 17 18 19 20 21 22 23 24 25 26 27 28 29 30 31 32 33 34 35 36 37 38 39 40 41 42 43 44 45 46 47 48 49 50
000
ASUS43 KFSD 271410
RWRSD

WEATHER ROUNDUP FOR SOUTH DAKOTA
NATIONAL WEATHER SERVICE SIOUX FALLS SD
900 AM CDT WED MAY 27 2015

NOTE: "FAIR" INDICATES FEW OR NO CLOUDS BELOW 12,000 FEET WITH NO
SIGNIFICANT WEATHER AND/OR OBSTRUCTIONS TO VISIBILITY.


SDZ001>005-009-010-012>017-271500-
NORTHWEST AND NORTH CENTRAL SOUTH DAKOTA

CITY           SKY/WX    TMP DP  RH WIND       PRES   REMARKS
BUFFALO          N/A     59  51  75 S3        29.91S
FAITH            N/A     63  49  60 S10       29.98R
MOBRIDGE       MOSUNNY   63  54  72 S5        29.96R
$$

SDZ012>016-024>037-041>051-057-063-072>074-271500-
SOUTHWEST AND SOUTH CENTRAL SOUTH DAKOTA

CITY           SKY/WX    TMP DP  RH WIND       PRES   REMARKS
RAPID CTY ARPT PTSUNNY   58  54  86 S12       30.00R
PIERRE         MOSUNNY   62  50  64 SW6       29.99S
CUSTER         PTSUNNY   52  48  86 CALM      30.07R
ELLSWORTH AFB  CLOUDY    59  53  83 S8        29.99R
PHILIP         MOSUNNY   67  54  63 S9        30.00R
PINE RIDGE     CLOUDY    59  51  75 S13G21    30.03S
SPEARFISH      FAIR      61  48  63 CALM      30.01S
WINNER         FAIR      67  49  52 SW12      30.03R
$$

SDZ004>011-016>023-039-040-271500-
NORTHEAST SOUTH DAKOTA

CITY           SKY/WX    TMP DP  RH WIND       PRES   REMARKS
ABERDEEN       SUNNY     70  54  56 NW3       29.97R
WATERTOWN      SUNNY     66  53  63 NW7       29.98R
BROOKINGS      SUNNY     64  54  68 W6        29.99R
SISSETON         N/A     71  51  49 N16       29.93R
$$

SDZ017-020-022-023-036>040-048>070-271500-
SOUTHEAST SOUTH DAKOTA

CITY           SKY/WX    TMP DP  RH WIND       PRES   REMARKS
SIOUX FALLS    SUNNY     69  54  58 NW6       30.00R
HURON          SUNNY     65  52  62 CALM      29.99R
CHAMBERLAIN    SUNNY     62  51  67 W5        30.03R
MITCHELL       SUNNY     65  55  70 W3        30.01R
YANKTON        SUNNY     64  55  72 SW6       30.01R
$$

ABBREVIATIONS USED IN REMARKS
   TC - TEMPERATURE IN CELSIUS
  WCI - WIND CHILL INDEX
   HX - HEAT INDEX
  VSB - VISIBILITY



USA.gov is the U.S. government's official web portal to all federal, state and local government web resources and services.